Location: Mauries
(43.6188°N, 0.3322°W)
Time: 19:58:19
(UTC+00:00)

SJ 16-02 - Pass Details

Date: 14 January 2026
Orbit: 583 x 594 km, 75.0° (Epoch: 11 February)

Event Time Altitude Azimuth Distance (km) Brightness Sun altitude
Rises 06:11:53 0° 157° (SSE) 2,791 5.3 -14.2°
Reaches altitude 10° 06:14:43 10° 136° (SE) 1,897 4.8 -13.7°
Maximum altitude 06:17:25 17° 96° (E) 1,514 4.5 -13.3°
Drops below altitude 10° 06:20:07 10° 56° (ENE) 1,908 4.4 -12.8°
Sets 06:22:59 0° 36° (NE) 2,814 5.0 -12.3°
